Weather reports worldwide

Advertisment
Lahr, Germany (10805): temperature & dewpoint: 06.11.2019 17:00:00 - 12.11.2019 17:00:00 (CET)Lahr, Germany (10805): temperature 5cm & temperature -5cm: 06.11.2019 17:00:00 - 12.11.2019 17:00:00 (CET)Lahr, Germany (10805): temperature -20cm & temperature -100cm: 06.11.2019 17:00:00 - 12.11.2019 17:00:00 (CET)Lahr, Germany (10805): wind speed & gusts: 06.11.2019 17:00:00 - 12.11.2019 17:00:00 (CET)Lahr, Germany (10805): wind direction: 06.11.2019 17:00:00 - 12.11.2019 17:00:00 (CET)Lahr, Germany (10805): reduced air pressure: 06.11.2019 17:00:00 - 12.11.2019 17:00:00 (CET)Lahr, Germany (10805): visibility: 06.11.2019 17:00:00 - 12.11.2019 17:00:00 (CET)Lahr, Germany (10805): sunshine duration: 06.11.2019 17:00:00 - 12.11.2019 17:00:00 (CET)Lahr, Germany (10805): precipitation: 06.11.2019 17:00:00 - 12.11.2019 17:00:00 (CET)
Date & Time tt [°C] td [°C] tt 5cm [°C] tt -5cm [°C] tt -20cm [°C] tt -100cm [°C] ff [km/h] ff [kn] fx [km/h] fx [kn] dd ppp [hPa] vv [km] sd [min] rr [mm]
12.11.2019 17:00:00 8,1 2,2 7,2 7,1 7,6 12,1 21 11 29 16 SSW 1006,2 10 8 0,0
12.11.2019 16:00:00 8,6 2,5 8,0 7,6 7,5 12,1 15 8 34 18 SSW 1005,8 70 0 0,0
12.11.2019 15:00:00 9,3 1,5 9,0 8,4 7,3 12,1 22 12 40 21 SSW 1005,7 70 13 0,0
12.11.2019 14:00:00 8,9 1,2 9,0 8,2 7,1 12,1 23 12 39 21 SSW 1006,3 64 21 0,0
12.11.2019 13:00:00 7,9 1,9 7,7 8,0 6,8 12,1 21 11 36 20 S 1006,7 60 9 0,0
12.11.2019 12:00:00 8,5 2,0 10,0 8,2 6,6 12,1 26 14 42 23 S 1007,9 10 42 0,0
12.11.2019 11:00:00 8,1 1,7 9,7 6,7 6,4 12,1 24 13 41 22 S 1008,3 35 60 0,0
12.11.2019 10:00:00 7,2 1,9 6,8 4,9 6,5 12,2 21 11 39 21 SSW 1008,7 34 60 0,0
12.11.2019 09:00:00 6,3 2,1 5,1 4,4 6,5 12,2 21 12 39 21 SSW 1009,1 41 49 0,0
12.11.2019 08:00:00 5,4 2,3 4,4 4,4 6,6 12,2 19 10 33 18 S 1009,4 43 0 0,0
12.11.2019 07:00:00 5,4 2,3 4,7 4,5 6,7 12,2 18 10 27 15 S 1009,2 57 0 0,0
12.11.2019 06:00:00 5,4 2,5 4,0 4,8 6,7 12,2 18 10 29 16 S 1009,5 53 0 0,0
12.11.2019 05:00:00 5,8 3,0 5,2 5,2 6,7 12,2 14 8 23 12 S 1009,9 46 0 0,0
12.11.2019 04:00:00 5,9 3,7 5,3 5,2 6,7 12,2 15 8 24 13 S 1010,0 60 0 0,0
12.11.2019 03:00:00 6,0 3,8 5,2 5,3 6,7 12,3 10 5 18 10 SSW 1010,2 59 0 0,0
12.11.2019 02:00:00 5,9 4,0 5,4 5,2 6,7 12,3 10 6 17 9 S 1009,7 40 0 0,0
12.11.2019 01:00:00 6,0 3,9 4,9 5,2 6,7 12,3 11 6 24 13 SSW 1009,7 40 0 0,0
12.11.2019 00:00:00 6,1 3,8 4,9 5,3 6,7 12,3 13 7 21 11 SSW 1009,5 32 0 0,0
11.11.2019 23:00:00 6,2 3,5 5,0 5,3 6,7 12,3 14 8 33 18 SSW 1008,7 36 0 0,1
11.11.2019 22:00:00 6,2 3,1 4,8 5,3 6,7 12,3 21 11 31 17 S 1008,0 33 0 0,0
11.11.2019 21:00:00 6,0 3,2 4,7 5,2 6,7 12,4 9 5 16 9 SSW 1007,8 22 0 0,4
11.11.2019 20:00:00 6,9 2,1 5,6 5,0 6,8 12,4 12 7 18 10 SSW 1007,4 24 0 0,0
11.11.2019 19:00:00 6,3 2,0 5,0 5,0 6,9 12,4 13 7 22 12 S 1007,7 10 0 0,0
11.11.2019 18:00:00 5,4 2,3 4,2 5,3 6,9 12,4 5 3 18 10 - 1007,9 10 0 0,0
11.11.2019 17:00:00 5,1 2,6 3,9 6,0 6,8 12,4 9 5 10 6 SSE 1007,7 10 0 0,0
11.11.2019 16:00:00 5,6 2,4 5,4 6,3 6,7 12,4 8 4 15 8 SSW 1008,7 10 0 0,0
11.11.2019 15:00:00 5,5 2,3 5,7 6,5 6,6 12,4 8 4 15 8 S 1008,9 10 0 0,0
11.11.2019 14:00:00 4,9 2,3 5,4 6,4 6,4 12,5 9 5 16 9 SSE 1009,6 10 0 0,0
11.11.2019 13:00:00 4,4 1,8 5,2 6,0 6,3 12,5 9 5 19 11 S 1010,4 12 0 0,0
11.11.2019 12:00:00 4,3 1,8 5,1 5,6 6,1 12,5 11 6 19 11 S 1011,7 11 0 0,0
11.11.2019 11:00:00 3,8 1,7 4,5 5,1 6,0 12,5 13 7 21 12 SSE 1012,7 11 0 0,0
11.11.2019 10:00:00 3,5 1,8 4,0 4,3 6,0 12,5 13 7 20 11 S 1013,5 9 0 0,0
11.11.2019 09:00:00 3,1 1,7 3,2 3,9 6,0 12,5 8 4 10 5 S 1014,4 10 0 0,0
11.11.2019 08:00:00 2,1 1,3 2,2 3,6 6,1 12,6 5 3 10 5 S 1014,9 7 0 0,0
11.11.2019 07:00:00 1,5 0,9 1,6 3,5 6,1 12,6 6 3 18 10 S 1015,3 7 0 0,0
11.11.2019 06:00:00 1,0 0,3 1,2 3,6 6,2 12,6 7 4 16 8 SSW 1016,1 12 0 0,0
11.11.2019 05:00:00 1,1 0,8 1,3 3,6 6,3 12,6 9 5 14 8 SE 1016,5 1,3 0 0,0
11.11.2019 04:00:00 0,8 0,7 1,1 3,7 6,3 12,6 10 5 18 10 SSE 1016,6 0,9 0 0,0
11.11.2019 03:00:00 1,1 0,9 1,3 3,9 6,4 12,6 10 5 15 8 SSW 1016,2 0,8 0 0,0
11.11.2019 02:00:00 1,4 1,1 1,7 4,0 6,4 12,6 6 3 9 5 WSW 1016,9 1,0 0 0,0
11.11.2019 01:00:00 1,4 1,3 1,6 4,1 6,5 12,7 4 2 10 5 ESE 1017,3 1,1 0 0,0
11.11.2019 00:00:00 1,4 1,1 1,7 4,1 6,5 12,7 6 4 13 7 ENE 1017,6 1,2 0 0,0
10.11.2019 23:00:00 1,6 1,4 1,9 4,2 6,6 12,7 7 4 10 5 ENE 1017,5 0,5 0 0,0
10.11.2019 22:00:00 1,5 1,3 1,9 4,3 6,6 12,7 6 3 11 6 N 1017,3 0,4 0 0,0
10.11.2019 21:00:00 1,5 1,4 1,8 4,4 6,7 12,7 9 5 12 6 NNE 1017,4 0,3 0 0,0
10.11.2019 20:00:00 1,9 1,8 2,2 4,6 6,7 12,7 8 4 12 6 NE 1017,3 0,5 0 0,0
10.11.2019 19:00:00 2,0 1,8 2,4 4,8 6,8 12,7 6 3 12 6 NNE 1017,1 0,2 0 0,0
10.11.2019 18:00:00 2,2 2,0 2,5 5,0 6,8 12,8 6 3 14 8 E 1016,4 0,7 0 0,0
10.11.2019 17:00:00 2,2 1,9 2,6 5,4 6,7 12,8 6 3 13 7 ENE 1015,9 0,8 0 0,0
10.11.2019 16:00:00 2,1 1,6 2,6 6,0 6,6 12,8 7 4 12 7 N 1015,3 0,7 0 0,0
10.11.2019 15:00:00 2,2 1,6 3,3 6,3 6,3 12,8 7 4 15 8 N 1014,4 3,3 0 0,0
10.11.2019 14:00:00 2,5 1,8 4,1 6,4 6,0 12,8 7 4 14 8 N 1013,8 4,3 0 0,0
10.11.2019 13:00:00 2,0 1,4 3,3 5,8 5,8 12,8 8 4 12 6 NNW 1013,7 2,2 0 0,0
10.11.2019 12:00:00 1,8 1,4 3,4 4,9 5,6 12,8 7 4 10 6 NE 1013,5 0,5 0 0,0
10.11.2019 11:00:00 0,5 0,4 1,7 3,0 5,5 12,8 4 2 8 4 NNE 1013,3 0,3 0 0,0
10.11.2019 10:00:00 -0,6 -1,0 -0,1 1,6 5,6 12,8 3 2 5 3 ENE 1012,7 0,2 0 0,0
10.11.2019 09:00:00 -1,1 -1,1 -0,8 1,5 5,8 12,9 3 1 6 4 WSW 1012,0 0,8 4 0,0
10.11.2019 08:00:00 -2,0 -3,0 -2,9 1,5 5,9 12,9 4 2 7 4 W 1011,3 18 0 0,0
10.11.2019 07:00:00 -1,7 -2,5 -3,4 1,6 6,1 12,9 3 2 9 5 WNW 1010,7 16 0 0,0
10.11.2019 06:00:00 -0,9 -1,4 -2,5 1,6 6,3 12,9 3 2 7 4 WSW 1010,3 16 0 0,0
10.11.2019 05:00:00 -1,0 -1,2 -3,0 1,7 6,5 12,9 0 0 4 2 N 1009,8 10 0 0,0
10.11.2019 04:00:00 -1,2 -1,5 -2,4 1,8 6,8 12,9 2 1 8 4 N 1009,3 0,2 0 0,0
10.11.2019 03:00:00 -0,8 -1,6 -2,5 1,9 7,1 12,9 6 3 11 6 NNE 1009,4 10 0 0,0
10.11.2019 02:00:00 0,6 -0,5 -1,0 2,3 7,4 12,9 8 5 10 6 SSE 1009,7 35 0 0,0
10.11.2019 01:00:00 0,5 -0,8 -1,5 2,7 7,7 12,9 4 2 12 6 WSW 1009,6 43 0 0,0
10.11.2019 00:00:00 1,8 0,9 -0,6 3,1 8,0 13,0 3 2 11 6 S 1009,7 22 0 0,0
09.11.2019 23:00:00 1,5 0,5 -1,2 3,6 8,3 13,0 7 4 11 6 E 1009,7 29 0 0,0
09.11.2019 22:00:00 1,7 1,2 -0,9 4,2 8,6 13,0 3 1 6 3 NE 1009,9 15 0 0,0
09.11.2019 21:00:00 2,3 1,5 -0,4 5,0 8,9 13,0 3 1 8 5 WSW 1010,2 16 0 0,0
09.11.2019 20:00:00 3,7 1,5 1,0 5,8 9,2 13,0 3 2 13 7 SSW 1010,2 34 0 0,0
09.11.2019 19:00:00 4,9 2,7 2,7 6,6 9,4 13,0 7 4 15 8 SSE 1010,4 48 0 0,0
09.11.2019 18:00:00 4,8 3,0 2,7 7,8 9,5 13,0 8 4 10 5 SE 1010,6 52 0 0,0
09.11.2019 17:00:00 8,0 3,3 6,0 9,4 9,4 13,0 8 4 18 10 S 1010,4 59 18 0,0
09.11.2019 16:00:00 9,8 2,7 10,2 11,1 9,2 13,0 11 6 17 9 SSW 1010,6 68 55 0,0
09.11.2019 15:00:00 10,4 3,4 12,1 11,3 8,8 13,1 9 5 16 9 SSW 1010,9 70 36 0,0
09.11.2019 14:00:00 10,6 3,8 11,7 11,4 8,4 13,1 9 5 19 10 SSW 1011,2 59 60 0,0
09.11.2019 13:00:00 9,5 3,4 10,3 10,3 8,1 13,1 14 8 19 11 SSW 1011,7 43 53 0,0
09.11.2019 12:00:00 8,2 4,3 7,6 9,0 7,8 13,1 13 7 19 11 SSW 1012,4 36 32 0,0
09.11.2019 11:00:00 7,3 4,6 7,1 7,5 7,7 13,1 12 7 19 10 SSW 1012,8 31 3 0,0
09.11.2019 10:00:00 6,5 4,2 5,9 6,4 7,7 13,1 11 6 20 11 SSW 1012,8 20 5 0,0
09.11.2019 09:00:00 5,4 3,9 5,0 5,7 7,7 13,1 11 6 17 9 S 1013,0 12 0 0,2
09.11.2019 08:00:00 4,8 3,5 4,3 5,4 7,7 13,1 12 6 19 10 SSW 1012,6 6 0 0,0
09.11.2019 07:00:00 4,7 3,7 4,1 5,4 7,8 13,1 7 4 16 8 SW 1012,2 14 0 0,1
09.11.2019 06:00:00 4,9 3,5 4,2 5,3 7,8 13,2 10 6 14 8 SSW 1012,0 23 0 0,0
09.11.2019 05:00:00 4,6 3,6 4,2 5,2 7,9 13,2 9 5 14 8 S 1011,4 34 0 0,0
09.11.2019 04:00:00 4,5 3,4 4,0 4,9 8,1 13,2 8 4 13 7 S 1011,2 31 0 0,0
09.11.2019 03:00:00 3,4 2,7 2,6 4,8 8,3 13,2 9 5 12 6 S 1011,0 19 0 0,0
09.11.2019 02:00:00 2,7 2,3 1,4 5,2 8,4 13,2 4 2 5 3 SSW 1010,8 0,5 0 0,0
09.11.2019 01:00:00 3,9 3,3 2,7 5,9 8,5 13,2 4 2 6 4 ESE 1010,5 8 0 0,0
09.11.2019 00:00:00 4,8 4,1 4,3 6,2 8,6 13,2 6 3 9 5 S 1010,5 12 0 0,0
08.11.2019 23:00:00 5,0 4,3 4,5 6,5 8,7 13,2 6 4 12 6 S 1010,2 11 0 0,0
08.11.2019 22:00:00 4,7 4,0 4,1 6,7 8,8 13,2 3 2 5 3 SE 1009,8 11 0 0,0
08.11.2019 21:00:00 5,2 4,2 4,8 6,9 8,9 13,2 3 2 10 5 ENE 1009,1 22 0 0,2
08.11.2019 20:00:00 5,5 4,7 5,2 7,1 9,0 13,3 5 3 8 4 SE 1008,9 10 0 0,7
08.11.2019 19:00:00 5,7 4,6 5,3 7,3 9,0 13,3 3 2 8 5 SW 1008,6 13 0 0,8
08.11.2019 18:00:00 5,8 4,7 5,5 7,5 9,1 13,3 4 2 9 5 - 1007,9 10 0 0,1
08.11.2019 17:00:00 5,8 4,7 5,6 7,7 9,1 13,3 5 3 12 7 ENE 1007,1 17 0 0,2
08.11.2019 16:00:00 6,3 4,9 6,0 8,2 9,1 13,3 11 6 16 9 NE 1006,5 8 0 0,3
08.11.2019 15:00:00 7,1 5,8 6,9 8,7 8,9 13,3 5 3 11 6 NNE 1005,9 10 0 0,3
08.11.2019 14:00:00 7,5 5,6 7,3 8,8 8,8 13,3 5 3 9 5 N 1005,4 13 0 0,1
08.11.2019 13:00:00 7,5 6,0 7,6 8,5 8,7 13,3 8 4 9 5 ENE 1005,0 10 0 0,0
08.11.2019 12:00:00 7,2 5,7 7,3 8,1 8,6 13,3 4 2 6 4 NNE 1005,4 14 0 0,0
08.11.2019 11:00:00 7,0 5,4 7,2 7,6 8,5 13,3 4 2 5 3 - 1005,5 10 0 0,0
08.11.2019 10:00:00 6,7 5,5 6,6 7,1 8,5 13,4 4 2 9 5 WSW 1005,6 15 0 0,0
08.11.2019 09:00:00 6,1 5,2 6,0 6,5 8,5 13,4 4 2 7 4 W 1005,4 12 0 0,0
08.11.2019 08:00:00 5,1 4,5 4,5 6,3 8,6 13,4 0 0 4 2 N 1005,4 8 0 0,0
08.11.2019 07:00:00 5,6 4,9 5,2 6,4 8,6 13,4 2 1 6 3 NNE 1005,3 15 0 0,0
08.11.2019 06:00:00 5,7 4,6 5,2 6,4 8,7 13,4 3 1 11 6 W 1005,1 30 0 0,0
08.11.2019 05:00:00 5,1 4,1 4,7 6,3 8,8 13,4 5 3 8 4 NNE 1005,2 19 0 0,0
08.11.2019 04:00:00 5,8 4,2 4,7 6,3 8,9 13,4 4 2 8 4 E 1005,3 56 0 0,0
08.11.2019 03:00:00 5,2 4,4 4,6 6,5 9,0 13,4 0 0 5 3 N 1005,5 20 0 0,0
08.11.2019 02:00:00 5,4 4,5 4,6 6,6 9,1 13,4 3 2 6 4 NNW 1006,0 29 0 0,0
08.11.2019 01:00:00 5,8 4,4 4,7 6,7 9,2 13,4 2 1 5 3 S 1005,8 36 0 0,0
08.11.2019 00:00:00 5,7 4,3 4,8 6,9 9,3 13,4 4 2 9 5 N 1006,3 39 0 0,0
07.11.2019 23:00:00 6,7 4,2 5,2 7,1 9,4 13,5 3 2 13 7 SSW 1006,0 51 0 0,0
07.11.2019 22:00:00 7,7 4,1 6,3 7,2 9,6 13,5 9 5 17 9 S 1006,1 55 0 0,0
07.11.2019 21:00:00 7,9 4,4 6,5 7,4 9,7 13,5 10 5 16 9 S 1005,6 57 0 0,0
07.11.2019 20:00:00 7,8 4,7 6,4 7,8 9,8 13,5 10 5 16 9 S 1005,6 55 0 0,0
07.11.2019 19:00:00 7,9 5,0 6,5 8,2 9,9 13,5 8 5 20 11 S 1005,2 62 0 0,0
07.11.2019 18:00:00 8,4 6,0 6,9 8,9 9,9 13,5 6 4 24 13 SW 1004,8 70 0 0,0
07.11.2019 17:00:00 9,2 6,7 8,1 9,4 9,8 13,5 18 10 32 17 SW 1004,2 10 0 0,2
07.11.2019 16:00:00 10,1 7,2 8,7 9,8 9,7 13,5 13 7 40 21 SW 1003,4 7 0 1,9
07.11.2019 15:00:00 11,7 5,8 11,2 10,4 9,4 13,5 24 13 41 22 SSW 1002,4 10 8 0,0
07.11.2019 14:00:00 12,0 5,9 12,2 10,6 9,2 13,5 28 15 56 30 SSW 1001,8 65 37 0,0
07.11.2019 13:00:00 11,3 5,4 11,3 9,1 9,0 13,5 31 17 41 22 SSW 1001,7 10 0 0,0
07.11.2019 12:00:00 9,8 5,4 8,4 8,4 8,9 13,5 16 9 34 19 S 1001,6 10 0 0,1
07.11.2019 11:00:00 7,7 6,0 7,2 7,5 8,8 13,5 8 5 12 7 S 1002,0 8 0 0,9
07.11.2019 10:00:00 7,6 5,5 7,7 6,9 8,8 13,5 6 3 10 5 S 1001,6 47 0 0,0
07.11.2019 09:00:00 6,7 4,9 5,9 6,0 8,9 13,6 5 3 21 12 SW 1001,6 40 7 0,0
07.11.2019 08:00:00 6,6 4,5 4,9 5,3 9,1 13,6 11 6 18 10 SSE 1001,8 65 0 0,0
07.11.2019 07:00:00 3,7 3,2 2,0 5,2 9,4 13,6 3 1 7 4 SSW 1002,4 14 0 0,0
07.11.2019 06:00:00 4,1 3,5 2,7 5,6 9,6 13,6 7 4 10 5 WSW 1003,1 24 0 0,0
07.11.2019 05:00:00 4,7 4,1 1,8 6,1 9,9 13,6 0 0 8 4 N 1003,5 30 0 0,0
07.11.2019 04:00:00 6,0 4,4 2,9 6,7 10,1 13,6 7 4 10 5 S 1003,4 53 0 0,0
07.11.2019 03:00:00 6,9 4,8 5,2 7,4 10,2 13,6 9 5 17 9 S 1003,9 66 0 0,0
07.11.2019 02:00:00 8,4 5,6 7,1 8,1 10,4 13,6 11 6 18 10 S 1004,5 66 0 0,0
07.11.2019 01:00:00 8,4 6,0 7,3 8,4 10,5 13,6 8 5 17 9 S 1005,3 53 0 0,0
07.11.2019 00:00:00 8,4 6,1 7,1 8,7 10,6 13,6 9 5 15 8 S 1005,9 43 0 0,0
06.11.2019 23:00:00 8,7 6,8 7,7 9,1 10,7 13,6 8 4 18 10 SSW 1006,4 10 0 0,0
06.11.2019 22:00:00 9,1 6,9 8,0 9,3 10,8 13,6 10 6 18 10 S 1006,5 50 0 0,1
06.11.2019 21:00:00 9,2 7,1 8,1 9,5 10,9 13,6 13 7 22 12 S 1006,4 28 0 0,3
06.11.2019 20:00:00 9,4 6,9 8,3 9,7 10,9 13,6 11 6 20 11 SSW 1006,5 24 0 0,1
06.11.2019 19:00:00 9,9 6,5 9,0 10,0 11,0 13,7 13 7 18 10 SSW 1006,3 10 0 0,0
06.11.2019 18:00:00 9,8 7,2 8,5 10,3 11,0 13,7 9 5 18 10 SSW 1006,0 10 0 0,1
06.11.2019 17:00:00 10,1 7,2 8,8 10,8 11,0 13,7 9 5 19 11 SSW 1005,7 52 0 0,4

tt = temperature
td = dewpoint
tt 5cm = temperature 5cm
tt -5cm = temperature -5cm
tt -20cm = temperature -20cm
tt -100cm = temperature -100cm
ff = wind speed
fx = gusts
dd = wind direction
ppp = reduced air pressure
vv = visibility
sd = sunshine duration
rr = precipitation

Next stations